Regional Weather Roundup
Issued by NWS

Home | Current Version | Previous Version | Text Only | Print | Product List | Glossary Off
Versions: 1 2 3 4 5 6 7 8 9 10 11 12 13 14 15 16 17 18 19 20 21 22 23 24 25 26 27 28 29 30 31 32 33 34 35 36 37 38 39 40 41 42 43 44 45 46 47 48 49 50

000
ASUS43 KLMK 290202
RWRKY
KENTUCKY REGIONAL WEATHER ROUNDUP
NATIONAL WEATHER SERVICE LOUISVILLE KY
1000 PM EDT FRI APR 28 2017

NOTE "FAIR" INDICATES FEW OR NO CLOUDS BELOW 12,000 FEET
WITH NO SIGNIFICANT WEATHER AND/OR OBSTRUCTIONS TO VISIBILITY.

KYZ001>023-026-027-061>063-070>075-290300-
WESTERN AND SOUTH CENTRAL KENTUCKY

CITY           SKY/WX    TMP DP  RH WIND       PRES   REMARKS
PADUCAH        PTCLDY    73  68  84 CALM      29.80R
HENDERSON      TSTM      74  69  85 S14G22    29.79F
OWENSBORO      CLOUDY    74  68  81 S13       29.81F
HOPKINSVILLE   PTCLDY    77  69  75 S9        29.84R
BOWLING GREEN  MOCLDY    78  68  71 S8        29.88R
GLASGOW        NOT AVBL
$$

KYZ024-025-028>034-038-045-046-053-290300-
NORTH CENTRAL KENTUCKY

CITY           SKY/WX    TMP DP  RH WIND       PRES   REMARKS
LOUISVILLE/SDF CLOUDY    75  66  73 S6        29.85R
LOUISVILLE/LOU CLOUDY    75  67  76 S5        29.86S
FORT KNOX      LGT RAIN  73  65  78 S5        29.85S
$$

KYZ035>037-039>044-047>052-055>060-089>105-290300-
NORTHEAST KENTUCKY

CITY           SKY/WX    TMP DP  RH WIND       PRES   REMARKS
LEXINGTON      MOCLDY    75  62  64 S13       29.91S
COVINGTON      CLOUDY    63  61  93 N32G41    29.89R THUNDER
FRANKFORT      MOCLDY    76  61  59 S7        29.88R
$$

KYZ054-064>069-076>088-106>120-290300-
SOUTHEAST KENTUCKY

CITY           SKY/WX    TMP DP  RH WIND       PRES   REMARKS
JACKSON        CLOUDY    75  59  57 CALM      29.98R
LONDON         CLOUDY    75  61  61 S6        29.98R
SOMERSET       CLOUDY    73  61  64 S6        29.97R
MIDDLESBORO    MOCLDY    69  66  89 CALM      30.03R
MONTICELLO     CLOUDY    77  65  66 VRB6      29.97R
$$




USA.gov is the U.S. government's official web portal to all federal, state and local government web resources and services.